Home   Weather   Edinburgh   Past weeks

Flag for United Kingdom Past Weather in Edinburgh, Scotland, United Kingdom — Yesterday and Last 2 Weeks

Now
50 °F

Passing clouds.


Feels Like: 50 °F
Forecast: 47 / 59 °F
Wind: 1 mph from North

Location: Edinburgh Airport

Current Time: Sep 26, 2016 at 11:34:03 PM

Latest Report: Sep 26, 2016 at 11:20 PM


Visibility: N/A

Pressure: 30.04 "Hg

Humidity: 94%

Dew Point: 48 °F

Location of EdinburghLocation

Past Weather in Edinburgh — Graph

°F

Edinburgh Temperature Yesterday

Maximum temperature yesterday: 61 °F (at 12:20 AM)
Minimum temperature yesterday: 46 °F (at 10:20 PM)
Average temperature yesterday: 55 °F

High & Low Weather Summary for the Past Weeks

 TemperatureHumidityPressure
High73 °F (Sep 12, 3:20 PM)100% (Sep 13, 9:50 AM)30.24 "Hg (Sep 13, 9:50 AM)
Low36 °F (Sep 21, 4:20 AM)52% (Sep 20, 2:20 PM)29.56 "Hg (Sep 25, 2:20 AM)
Average57 °F82%29.95 "Hg
* Reported Sep 11 10:20 PM — Sep 26 10:20 PM, Edinburgh, Weather by CustomWeather, © 2016

Note: Actual official high and low records may vary slightly from our data, if they occured in-between our weather recording intervals... More about our weather records

Advertising

Edinburgh Weather History for the Previous 24 Hours

Scroll right to see more
 ConditionsComfort  
Time TempWeatherWind HumidityBarometerVisibility
10:20 PM
Mon, Sep 26
52 °FOvercast.2 mph88%30.04 "HgN/A
9:50 PM52 °FPassing clouds.2 mph88%30.04 "HgN/A
9:20 PM52 °FPassing clouds.5 mph88%30.04 "HgN/A
8:50 PM52 °FPassing clouds.3 mph94%30.04 "HgN/A
8:20 PM52 °FPassing clouds.1 mph94%30.04 "HgN/A
7:50 PM54 °FPassing clouds.2 mph88%30.04 "HgN/A
7:20 PM52 °FPassing clouds.1 mph94%30.01 "HgN/A
6:50 PM54 °FScattered clouds.2 mph88%30.01 "HgN/A
6:20 PM54 °FPartly sunny.2 mph88%30.01 "HgN/A
5:50 PM55 °FPassing clouds.5 mph82%30.01 "HgN/A
5:20 PM55 °FPartly sunny.5 mph82%30.04 "HgN/A
4:50 PM55 °FPassing clouds.7 mph82%30.04 "HgN/A
4:20 PM55 °FPassing clouds.8 mph77%30.01 "HgN/A
3:50 PM57 °FPassing clouds.9 mph77%30.01 "HgN/A
3:20 PM57 °FPassing clouds.10 mph72%30.01 "HgN/A
2:50 PM57 °FPassing clouds.9 mph77%30.01 "HgN/A
2:20 PM57 °FPassing clouds.12 mph77%30.01 "HgN/A
1:50 PM55 °FSprinkles. Scattered clouds.7 mph88%30.04 "HgN/A
1:20 PM59 °FScattered showers. Partly sunny.10 mph68%30.04 "HgN/A
12:50 PM59 °FMostly cloudy.9 mph68%30.04 "HgN/A
12:20 PM57 °FScattered clouds.8 mph72%30.04 "HgN/A
11:50 AM57 °FPassing clouds.7 mph77%30.04 "HgN/A
11:20 AM55 °FPassing clouds.5 mph82%30.01 "HgN/A
10:50 AM54 °FPassing clouds.6 mph77%30.01 "HgN/A
10:20 AM54 °FPassing clouds.7 mph82%30.01 "HgN/A
9:50 AM52 °FPassing clouds.6 mph88%30.01 "HgN/A
9:20 AM52 °FPassing clouds.3 mph82%30.01 "HgN/A
8:50 AM48 °FPassing clouds.5 mph94%30.01 "HgN/A
8:20 AM45 °FPassing clouds.3 mph93%30.01 "HgN/A
7:50 AM43 °FPassing clouds.3 mph93%30.01 "HgN/A
7:20 AM43 °FPassing clouds.5 mph93%30.01 "HgN/A
6:50 AM43 °FPassing clouds.5 mph93%30.01 "HgN/A
6:20 AM39 °FClear.6 mph100%29.98 "Hg10 mi
5:50 AM41 °FClear.2 mph100%29.98 "Hg10 mi
5:20 AM39 °FChilly.5 mph93%29.98 "HgN/A
4:50 AM41 °FClear.8 mph93%29.98 "Hg10 mi
4:20 AM45 °FClear.3 mph93%29.98 "Hg10 mi
3:50 AM46 °FPassing clouds.6 mph87%29.98 "HgN/A
3:20 AM45 °FQuite cool.5 mph93%29.98 "HgN/A
2:50 AM46 °FClear.9 mph93%29.95 "Hg10 mi
2:20 AM46 °FClear.8 mph87%29.95 "Hg10 mi
1:50 AM46 °FClear.9 mph93%29.95 "Hg10 mi
1:20 AM45 °FQuite cool.6 mph93%29.95 "HgN/A
12:50 AM46 °FPassing clouds.7 mph87%29.92 "HgN/A
12:20 AM46 °FPassing clouds.7 mph93%29.92 "HgN/A
11:50 PM
Sun, Sep 25
46 °FClear.8 mph93%29.92 "Hg10 mi
11:20 PM50 °FLight rain. Passing clouds.14 mph88%29.89 "HgN/A
Weather by CustomWeather, © 2016

See weather overviewHow to use our weather pages